This demonstration page uses our WeatherBlox Daily Observations layout. Learn more.

Left ArrowRight Arrow

Hourly Observations for August 13, 2021

Temp ( °F °C ) Dew Point ( °F °C ) Humidity (%) Winds ( mph kmh ) Pressure ( in mb ) Visibility ( mi km ) Precip ( " mm )
12:15 am 00:15 Cloudy with Thunderstorms 69 20.5 59 15 71 71 SW 5 7 30.08 1019 10 16 0.00 0.00
12:35 am 00:35 Cloudy with Thunderstorms 69 20.5 60 15.5 73 73 SW 3 6 30.08 1019 5 8 0.04 1.02
12:55 am 00:55 Cloudy with Thunderstorms 65 18.4 60 15.5 83 83 NW 5 7 30.10 1019 10 16 0.07 1.78
1:15 am 01:15 Mostly Cloudy with Thunderstorms 64 18 61 16.3 90 90 Calm 30.09 1019 10 16 0.01 0.25
1:35 am 01:35 Partly Cloudy with Light Rain 64 17.8 62 16.5 92 92 N 3 6 30.09 1019 10 16 0.02 0.51
1:55 am 01:55 Clear 64 17.5 60 15.8 90 90 Calm 30.09 1019 10 16 0.02 0.51
2:15 am 02:15 Clear 64 17.5 61 16 91 91 Calm 30.07 1018 10 16 0.00 0.00
2:35 am 02:35 Clear 63 17.1 60 15.6 91 91 N 6 9 30.08 1019 10 16 0.00 0.00
2:55 am 02:55 Clear 63 17 59 15 88 88 N 6 9 30.09 1019 10 16 0.00 0.00
3:15 am 03:15 Partly Cloudy 62 16.8 59 15 89 89 N 6 9 30.10 1019 10 16 0.00 0.00
3:35 am 03:35 Mostly Cloudy 64 17.5 58 14.5 83 83 NNE 6 9 30.11 1020 10 16 0.00 0.00
3:55 am 03:55 Cloudy 64 17.5 58 14.3 82 82 NNE 5 7 30.11 1020 10 16 0.00 0.00
4:15 am 04:15 Cloudy 63 17.2 58 14.6 85 85 N 6 9 30.13 1020 10 16 0.00 0.00
4:35 am 04:35 Cloudy 63 17.2 58 14.7 85 85 NNE 6 9 30.13 1020 10 16 0.00 0.00
4:55 am 04:55 Cloudy with Nearby Thunderstorms 63 17.2 59 14.9 86 86 N 5 7 30.14 1021 10 16 0.00 0.00
5:15 am 05:15 Cloudy with Thunderstorms 64 17.8 57 14.1 79 79 NE 7 11 30.14 1020 10 16 0.00 0.00
5:35 am 05:35 Cloudy 64 17.8 57 13.7 77 77 E 8 13 30.15 1021 10 16 0.00 0.00
5:55 am 05:55 Cloudy 64 17.8 56 13.5 76 76 E 9 15 30.15 1021 10 16 0.00 0.00
6:15 am 06:15 Cloudy 64 18 57 14 78 78 ESE 8 13 30.15 1021 10 16 0.00 0.00
6:35 am 06:35 Cloudy 63 17.3 58 14.3 83 83 E 6 9 30.16 1021 10 16 0.00 0.00
6:55 am 06:55 Cloudy 64 17.5 58 14.7 84 84 E 9 15 30.17 1022 10 16 0.00 0.00
7:15 am 07:15 Mostly Cloudy 64 17.5 56 13.6 78 78 ESE 9 15 30.17 1022 10 16 0.00 0.00
7:35 am 07:35 Partly Cloudy 63 17.2 57 13.9 81 81 SE 5 7 30.18 1022 10 16 0.00 0.00
7:55 am 07:55 Mostly Cloudy 63 17.1 58 14.3 84 84 ESE 7 11 30.18 1022 10 16 0.00 0.00
8:15 am 08:15 Partly Cloudy 64 17.8 57 14.1 79 79 ESE 6 9 30.18 1022 10 16 0.00 0.00
8:35 am 08:35 Mostly Cloudy 65 18.1 57 14.1 78 78 ESE 8 13 30.19 1022 10 16 0.00 0.00
8:55 am 08:55 Cloudy 66 18.8 57 14.1 74 74 ESE 6 9 30.18 1022 10 16 0.00 0.00
9:15 am 09:15 Cloudy 68 19.9 60 15.5 76 76 E 5 7 30.18 1022 10 16 0.00 0.00
9:35 am 09:35 Cloudy 68 19.8 61 15.9 78 78 Calm 30.19 1022 10 16 0.00 0.00
9:55 am 09:55 Cloudy 68 20 62 16.6 81 81 Calm 30.20 1023 10 16 0.00 0.00
10:15 am 10:15 Cloudy 69 20.7 63 17.3 81 81 Calm 30.19 1022 10 16 0.00 0.00
10:35 am 10:35 Mostly Cloudy 71 21.8 63 17.4 76 76 Calm 30.18 1022 10 16 0.00 0.00
10:55 am 10:55 Sunny 72 22.3 63 17.4 74 74 Calm 30.17 1022 10 16 0.00 0.00
11:15 am 11:15 Partly Cloudy 74 23.4 64 18 72 72 SSE 6 9 30.17 1022 10 16 0.00 0.00
11:35 am 11:35 Mostly Cloudy 74 23.2 65 18.1 73 73 SW 6 9 30.17 1022 10 16 0.00 0.00
11:55 am 11:55 Cloudy 74 23.5 65 18.2 72 72 W 3 6 30.16 1021 10 16 0.00 0.00
12:15 pm 12:15 Partly Cloudy 76 24.4 65 18.2 68 68 Calm 30.15 1021 10 16 0.00 0.00
12:35 pm 12:35 Mostly Cloudy 76 24.4 64 18 68 68 WSW 5 7 30.15 1021 10 16 0.00 0.00
12:55 pm 12:55 Cloudy 76 24.3 64 18 68 68 NNW 3 6 30.15 1021 10 16 0.00 0.00
1:15 pm 13:15 Mostly Cloudy 76 24.5 65 18.2 68 68 Calm 30.15 1021 10 16 0.00 0.00
1:35 pm 13:35 Mostly Cloudy 78 25.5 67 19.5 70 70 N 3 6 30.14 1021 10 16 0.00 0.00
1:55 pm 13:55 Mostly Cloudy 78 25.6 66 18.9 67 67 N 3 6 30.13 1020 10 16 0.00 0.00
2:15 pm 14:15 Mostly Cloudy 78 25.8 65 18.5 64 64 N 3 6 30.13 1020 10 16 0.00 0.00
2:35 pm 14:35 Partly Cloudy 79 25.9 67 19.5 68 68 N 3 6 30.13 1020 10 16 0.00 0.00
2:55 pm 14:55 Partly Cloudy 78 25.5 64 17.7 62 62 Calm 30.12 1020 10 16 0.00 0.00
3:15 pm 15:15 Mostly Cloudy 80 26.8 65 18.2 59 59 Calm 30.11 1020 10 16 0.00 0.00
3:35 pm 15:35 Partly Cloudy 80 26.4 64 18 60 60 NE 3 6 30.11 1020 10 16 0.00 0.00
3:55 pm 15:55 Sunny 80 26.5 62 16.8 55 55 Calm 30.11 1020 10 16 0.00 0.00
4:15 pm 16:15 Mostly Cloudy 80 26.8 63 17.4 56 56 Calm 30.11 1020 10 16 0.00 0.00
4:35 pm 16:35 Partly Cloudy 79 26 64 17.7 60 60 S 3 6 30.12 1020 10 16 0.00 0.00
4:55 pm 16:55 Partly Cloudy 79 26.1 64 17.7 60 60 Calm 30.11 1020 10 16 0.00 0.00
5:15 pm 17:15 Mostly Cloudy 79 26 64 17.9 61 61 Calm 30.11 1020 10 16 0.00 0.00
5:35 pm 17:35 Cloudy 80 26.5 66 18.8 63 63 ESE 3 6 30.09 1019 10 16 0.00 0.00
5:55 pm 17:55 Cloudy 80 26.5 65 18.5 62 62 ESE 6 9 30.09 1019 10 16 0.00 0.00
6:15 pm 18:15 Cloudy 80 26.5 66 18.7 62 62 SE 7 11 30.09 1019 10 16 0.00 0.00
6:35 pm 18:35 Mostly Cloudy 79 26.1 66 18.7 64 64 SE 6 9 30.10 1019 10 16 0.00 0.00
6:55 pm 18:55 Sunny 80 26.5 64 17.6 58 58 SE 3 6 30.08 1019 10 16 0.00 0.00
7:15 pm 19:15 Sunny 79 26.1 64 17.7 60 60 ESE 7 11 30.09 1019 10 16 0.00 0.00
7:35 pm 19:35 Sunny 78 25.5 64 18 63 63 ESE 5 7 30.09 1019 10 16 0.00 0.00
7:55 pm 19:55 Sunny 76 24.5 65 18.4 69 69 ESE 6 9 30.10 1019 10 16 0.00 0.00
8:15 pm 20:15 Sunny 74 23.3 66 18.8 76 76 ESE 6 9 30.12 1020 10 16 0.00 0.00
8:35 pm 20:35 Sunny 71 21.8 66 18.7 83 83 ESE 6 9 30.13 1020 10 16 0.00 0.00
8:55 pm 20:55 Clear 70 21 65 18.3 85 85 E 6 9 30.14 1021 10 16 0.00 0.00
9:15 pm 21:15 Clear 70 20.9 64 17.6 82 82 ESE 6 9 30.15 1021 10 16 0.00 0.00
9:35 pm 21:35 Clear 69 20.5 63 17.2 81 81 ESE 5 7 30.16 1021 10 16 0.00 0.00
9:55 pm 21:55 Clear 68 20.1 63 17.1 83 83 SE 7 11 30.18 1022 10 16 0.00 0.00
10:15 pm 22:15 Clear 68 20 62 16.6 81 81 SE 6 9 30.19 1022 10 16 0.00 0.00
10:35 pm 22:35 Mostly Cloudy 68 20 62 16.5 80 80 SSE 7 11 30.20 1023 10 16 0.00 0.00
10:55 pm 22:55 Mostly Cloudy 67 19.6 61 16.2 81 81 SE 6 9 30.20 1023 10 16 0.00 0.00
11:15 pm 23:15 Mostly Cloudy 67 19.5 61 16.2 81 81 SE 7 11 30.20 1023 10 16 0.00 0.00
11:35 pm 23:35 Cloudy 67 19.3 61 16.1 82 82 SE 5 7 30.20 1023 10 16 0.00 0.00
11:55 pm 23:55 Cloudy 67 19.4 61 16.1 81 81 SSE 3 6 30.21 1023 10 16 0.00 0.00

Powered by AerisWeather